Tracking 30509 objects as of 18-May-2025
HD Live streaming from Space Station
objects crossing your sky now

COSMOS 397 DEB

Track COSMOS 397 DEB now!
10-day predictions


NORAD ID: 6844
Int'l Code: 1971-015CL
Perigee: 535.3 km
Apogee: 1,391.3 km
Inclination: 65.9 °
Period: 104.2 minutes
Semi major axis: 7334 km
RCS: 0.0356 m2 (small)
Launch date: February 25, 1971
Source: Commonwealth of Independent States (former USSR) (CIS)
Launch site: TYURATAM MISSILE AND SPACE COMPLEX (TTMTR)

Note: This is SATELLITE DEBRIS
Your satellite tracking list
Your tracking list is empty




NASA's NSSDC Master Catalog

Two Line Element Set (TLE):
1  6844U 71015CL  25138.06338247  .00006669  00000-0  16498-2 0  9995
2  6844  65.8946 127.4913 0583600 317.0607  38.6262 13.82184043566148
Source of the keplerian elements: AFSPC